Dewpoint
58 56 55 54 54 54 54 54 54 55 55 55 56 56 56 57 57 58 58 59 59 60 60 60 61 61 61 62 62 61 59 55 46 42 41 47 59 63 63 65 65 65 66 57 47 34 23 20 19 20 29 37 43 38 41 42 39 43 33 26 25 23 18 22 19 17 20 18 15 15 14 14 16 19 22 23 21 21 21 20 30 30 35 37 47 56 57 58
57 56 55 54 54 54 54 54 54 54 55 55 55 56 56 57 57 57 58 59 59 59 60 60 61 61 61 61 61 61 58 57 47 35 40 58 63 63 64 65 65 64 63 50 35 21 19 15 18 15 25 28 44 37 40 42 40 38 25 23 24 25 22 16 16 17 13 17 16 15 14 14 18 16 20 17 18 16 21 21 27 26 35 36 44 54 55 56
57 56 56 54 53 53 54 54 54 54 54 55 55 56 56 56 57 57 58 58 58 59 59 60 60 61 61 61 61 60 60 53 43 39 44 63 63 63 64 64 64 64 54 43 34 22 17 17 16 15 20 19 29 27 37 36 36 30 32 27 28 26 17 17 17 19 20 18 14 14 14 16 16 17 22 19 15 15 16 17 21 23 33 36 42 49 53 55
57 56 56 55 53 53 53 53 53 54 54 55 54 55 56 56 56 57 58 58 58 59 59 60 60 60 61 61 60 59 56 57 33 40 53 63 62 63 61 61 63 59 55 50 43 26 21 17 17 15 31 26 29 33 30 35 31 29 23 22 26 19 19 18 19 19 19 19 15 16 18 18 21 21 19 16 15 15 15 15 18 20 25 35 39 46 50 53
57 56 56 54 54 53 53 52 53 53 54 54 55 55 55 55 56 57 57 58 58 59 59 60 60 61 60 61 60 57 57 27 31 47 53 62 62 60 60 60 63 51 44 42 27 21 18 15 16 22 28 16 25 21 13 25 31 32 15 18 21 22 20 20 19 22 20 20 17 17 16 17 21 22 21 18 13 16 18 18 17 27 23 35 38 44 47 51
57 57 56 55 54 53 53 53 53 53 53 54 54 55 55 55 56 56 57 57 58 58 59 60 60 60 60 59 57 58 50 9 45 52 58 60 62 60 59 61 62 54 38 28 24 25 21 18 15 26 17 14 15 10 14 16 27 15 18 18 21 21 18 21 21 22 20 19 18 17 20 19 19 19 19 17 15 19 23 25 26 31 34 37 39 43 45 47
58 57 56 55 53 53 52 53 52 52 53 53 53 54 54 55 55 56 56 57 57 58 59 59 60 60 59 57 58 50 37 39 33 58 60 59 59 62 58 58 61 44 32 29 23 25 22 16 15 12 15 21 11 14 18 16 23 18 14 18 21 20 20 22 21 23 19 20 19 22 22 21 19 18 20 17 17 20 26 27 25 28 36 38 40 44 44 45
57 56 56 55 54 52 52 52 52 52 52 52 53 54 55 55 55 56 56 57 57 58 59 59 59 59 58 57 50 34 35 32 45 53 54 57 48 42 54 48 42 46 32 27 22 17 22 16 12 27 14 13 13 15 23 17 16 15 17 21 22 21 21 21 20 19 21 20 20 22 20 18 19 20 22 21 20 21 26 27 26 26 30 36 41 43 44 43
57 56 56 55 55 54 52 52 52 52 52 52 52 53 54 55 55 55 56 56 57 57 58 59 59 59 58 50 45 36 15 52 48 46 47 46 39 38 53 42 44 33 30 25 25 24 30 24 22 17 11 15 18 13 17 17 11 22 19 20 21 20 20 20 21 21 21 21 22 20 18 20 22 24 19 19 20 20 25 26 27 27 26 29 40 42 42 42
57 56 56 55 54 53 51 51 52 52 51 51 52 53 54 54 55 55 56 57 57 57 58 59 59 57 54 51 42 20 46 45 47 42 41 41 37 37 37 36 35 31 26 26 28 26 29 28 29 27 28 16 22 19 24 22 18 20 19 20 20 20 21 24 21 22 23 23 21 21 18 19 23 18 14 26 22 29 27 27 28 27 25 25 28 38 39 40
57 56 55 54 54 52 51 51 51 51 50 50 52 53 54 54 54 55 56 56 57 57 58 58 58 57 58 42 28 12 51 45 46 37 39 43 38 34 36 34 36 34 29 33 35 33 32 29 32 27 30 15 18 20 22 25 23 21 20 20 20 21 22 22 21 21 21 22 22 22 20 23 23 26 16 26 31 28 24 24 29 30 27 25 26 27 37 39
56 55 54 54 53 52 51 51 51 51 50 50 52 53 53 54 54 55 56 56 57 57 58 58 58 55 42 31 24 31 43 43 41 37 46 42 37 38 40 39 38 43 34 30 42 45 40 38 40 23 18 24 17 19 22 25 25 19 18 16 19 19 19 20 18 21 24 23 24 24 22 20 23 21 21 25 30 28 25 23 27 29 27 28 27 28 34 39
56 55 54 54 54 53 51 51 51 50 50 51 52 52 53 54 54 55 56 56 57 57 58 58 57 56 51 23 42 43 45 42 42 39 43 42 40 36 42 45 43 35 34 28 32 41 43 40 36 24 30 25 20 17 23 27 21 24 22 19 16 16 15 18 23 22 23 25 27 24 19 19 18 21 22 29 29 28 25 25 28 29 28 27 30 31 36 41
55 55 54 54 54 52 51 51 51 50 50 51 52 52 53 54 54 55 56 56 57 58 59 58 57 49 37 7 42 47 44 45 40 37 43 43 38 47 34 43 41 34 37 33 43 42 47 37 39 25 34 21 21 32 23 23 23 16 16 21 20 18 18 21 23 22 21 26 26 23 23 17 20 20 28 30 28 25 25 24 23 26 29 29 33 34 36 40
55 55 55 54 53 52 52 51 50 50 51 51 51 52 53 54 55 55 56 57 57 58 58 57 57 52 21 32 39 46 59 49 41 41 46 40 37 35 33 38 32 33 31 34 42 42 35 41 38 22 23 27 25 23 16 17 19 20 15 16 23 22 27 24 25 22 19 24 25 23 26 18 14 25 27 28 28 26 24 23 22 24 26 29 32 35 35 37
55 55 55 54 53 52 52 51 50 50 51 51 52 52 53 55 55 55 56 57 57 58 57 55 55 44 21 16 44 51 51 38 36 47 39 44 42 31 38 37 38 32 33 30 37 34 30 32 30 27 24 26 24 19 17 22 21 21 17 26 22 23 24 23 23 25 27 22 26 21 20 16 19 23 26 26 25 25 24 23 23 22 23 27 31 34 35 35
55 55 55 54 53 53 52 51 50 50 51 51 52 52 53 54 55 56 57 58 58 56 55 44 33 28 15 39 36 39 32 42 41 46 41 39 40 34 33 40 32 30 34 38 41 45 32 26 32 32 28 19 21 29 22 23 23 22 24 19 29 21 20 17 23 25 33 25 21 22 22 19 18 20 25 27 25 24 23 23 23 23 24 25 30 31 34 34
56 55 54 54 53 53 52 51 50 50 51 51 52 53 53 55 57 57 58 55 55 53 52 42 40 34 8 24 26 28 37 39 44 39 42 37 34 32 37 29 32 28 31 25 36 28 31 30 28 23 28 27 18 24 24 21 25 22 21 20 21 20 13 11 19 23 24 24 22 21 22 20 20 20 19 25 26 26 24 23 22 22 22 24 28 30 31 33
55 55 54 53 53 52 52 51 51 51 51 52 52 54 55 56 56 52 46 48 44 27 30 24 27 12 14 17 37 37 43 42 41 38 34 40 42 35 34 28 36 22 29 18 20 24 30 33 36 31 22 20 17 17 20 22 16 16 24 22 16 18 15 6 23 24 24 20 21 20 19 16 16 17 19 20 22 25 24 23 23 22 22 21 24 29 30 33
55 55 54 54 53 52 51 51 50 51 52 52 51 52 52 43 46 37 40 36 27 19 27 28 21 23 30 34 37 39 41 41 31 38 40 37 39 30 25 23 42 29 22 30 33 28 36 29 26 27 24 16 15 14 16 14 11 10 23 23 11 19 19 23 24 25 25 20 17 17 17 16 16 15 15 15 17 20 22 23 23 23 23 23 23 24 30 32
55 55 54 54 54 53 52 51 51 51 52 52 51 51 26 23 19 17 33 31 33 39 31 33 29 32 32 37 40 37 30 33 35 36 42 42 34 26 22 22 27 29 22 28 33 28 31 28 27 27 19 18 16 15 14 11 13 15 23 23 17 25 16 24 24 25 25 24 18 16 15 15 14 14 16 18 18 16 15 16 17 21 24 26 27 27 28 32
55 55 54 54 53 52 51 51 51 52 54 52 52 50 40 28 48 48 28 14 26 38 41 40 32 34 37 34 38 38 40 28 32 35 42 42 30 23 20 19 15 15 31 28 26 27 26 25 24 20 19 19 18 15 14 17 23 23 20 22 23 18 25 24 24 24 27 26 19 17 18 18 18 18 17 17 16 17 16 16 15 16 21 26 27 28 29 34
55 55 54 54 53 51 50 52 52 54 51 50 50 50 49 51 52 54 48 23 22 41 38 32 27 33 36 37 38 40 28 24 27 34 33 42 27 27 18 16 15 13 21 20 24 29 27 24 19 21 19 17 18 19 17 26 29 21 21 18 20 31 25 22 25 25 25 21 24 26 24 24 24 24 22 20 17 16 18 19 20 23 22 23 23 29 31 32
55 55 54 53 51 51 53 54 54 52 50 49 50 49 55 54 53 51 48 24 19 28 31 37 33 33 33 29 36 35 28 22 28 30 35 35 22 28 25 15 13 19 19 16 16 21 23 25 23 19 19 12 15 18 17 18 15 29 29 26 24 27 25 21 19 23 23 29 33 28 27 26 27 26 27 26 24 21 21 23 24 27 34 33 38 38 39 31
55 55 55 54 53 53 54 54 51 48 49 49 49 50 55 55 55 53 46 27 24 35 43 40 43 42 34 45 46 32 29 30 34 29 33 31 23 23 21 18 15 13 19 17 14 22 22 25 30 19 26 15 22 17 24 29 15 22 30 29 27 30 26 29 30 27 19 21 31 32 16 22 25 26 27 26 18 27 29 29 28 28 30 34 33 35 37 41
55 56 55 55 54 54 55 49 47 48 48 47 49 53 54 54 55 48 40 26 21 30 35 20 37 23 42 35 44 41 26 25 37 38 32 36 34 26 24 23 20 18 16 21 14 23 20 25 32 24 26 27 28 22 29 28 21 19 21 34 33 29 30 28 30 26 18 12 31 33 15 17 15 13 12 10 10 21 27 29 27 27 29 31 33 36 37 39
55 56 55 55 55 56 48 43 47 49 47 46 53 54 55 51 51 52 24 24 15 28 16 42 31 32 45 32 31 27 18 25 36 36 33 38 31 30 19 17 20 20 23 24 23 23 25 27 33 31 30 33 30 23 30 25 20 14 36 39 32 33 29 30 30 29 25 31 32 32 26 19 17 17 17 15 12 16 19 22 25 24 27 29 35 37 37 38
55 55 55 56 55 54 46 51 48 47 42 48 52 53 55 54 55 44 27 17 17 29 25 24 34 41 39 32 35 16 25 30 28 32 33 36 34 27 21 18 17 17 23 23 19 35 25 31 34 32 32 29 25 32 37 32 25 30 35 39 34 33 34 31 30 28 27 25 24 29 32 23 23 23 21 16 13 15 16 15 16 20 30 34 34 39 39 39
55 55 55 55 56 55 53 50 47 42 50 54 52 54 55 54 50 17 20 17 33 22 38 20 40 39 34 35 31 26 26 30 23 33 41 32 35 27 18 20 17 15 23 26 16 33 32 34 31 33 30 25 33 33 38 36 25 33 38 36 37 36 35 33 27 27 26 20 19 28 32 15 10 15 18 21 15 17 18 16 16 31 33 35 37 37 37 38
55 56 56 56 56 54 53 52 50 52 52 53 53 54 55 49 26 19 14 9 31 24 29 31 31 28 29 27 24 26 25 31 32 33 29 25 31 32 25 28 23 24 30 27 33 33 31 31 35 32 28 37 33 34 38 35 36 37 38 35 33 31 30 28 26 24 20 16 18 31 30 20 10 21 23 19 22 17 16 14 30 36 37 37 40 39 37 38
56 56 56 56 52 52 50 47 48 51 54 55 54 53 49 42 21 12 11 20 35 34 31 25 23 29 25 22 21 23 26 30 30 28 26 28 26 27 25 23 32 33 29 29 33 32 33 31 34 36 32 33 34 35 38 39 38 39 33 27 30 27 28 25 24 23 12 16 25 27 30 27 11 17 27 18 18 17 17 10 28 34 36 37 37 37 36 37
55 56 56 55 53 53 47 46 54 55 53 53 54 49 34 21 27 12 13 17 25 28 26 24 28 26 22 21 26 21 26 28 29 26 27 27 26 23 23 21 27 25 22 25 26 35 34 33 35 35 35 34 35 30 32 36 37 38 29 24 19 17 21 19 22 22 20 14 21 22 28 21 21 10 23 19 15 19 21 22 23 29 35 38 36 35 35 38
56 56 56 55 53 52 50 54 54 55 54 52 52 45 27 19 13 17 16 19 17 29 26 28 25 23 21 21 22 22 32 26 29 26 28 31 26 27 28 21 27 25 19 25 26 25 28 36 34 35 33 33 37 24 27 23 29 33 24 23 18 10 15 11 19 21 19 21 24 25 26 18 17 17 18 18 16 18 21 25 31 28 31 37 36 37 37 38
56 56 55 55 53 53 53 54 54 55 51 51 47 36 31 17 15 27 19 21 34 37 29 28 25 22 21 17 24 25 24 29 28 26 27 28 27 25 25 25 24 24 30 24 23 24 21 25 31 30 26 34 35 28 26 25 27 29 27 25 24 18 11 9 12 14 17 19 20 24 16 21 14 16 21 27 27 28 28 27 32 33 33 36 39 39 40 39
56 56 55 55 53 52 53 53 54 54 50 47 42 30 22 17 16 14 16 23 34 26 26 27 25 24 21 23 24 24 23 28 28 26 27 27 24 25 24 22 24 25 30 22 26 23 21 23 34 35 37 32 33 37 38 33 28 29 30 29 23 23 19 13 21 17 16 19 19 20 19 22 20 24 24 28 24 22 26 27 28 27 33 36 38 39 39 38
55 55 55 53 52 52 53 54 53 52 47 43 34 27 22 18 16 20 20 30 29 31 27 26 29 22 21 23 29 25 35 34 28 29 31 29 28 25 29 27 23 23 24 17 26 21 23 20 35 38 40 30 33 39 35 38 22 28 29 26 27 31 24 22 21 21 17 14 14 23 20 20 20 10 12 15 15 14 22 24 25 27 29 31 33 34 38 39
53 54 50 52 52 52 53 54 53 50 47 41 30 24 24 24 21 23 32 27 29 27 26 23 25 21 20 27 28 25 32 34 30 28 25 32 27 28 28 29 27 26 25 20 25 28 24 28 32 33 31 34 36 37 36 37 37 29 24 29 32 34 30 19 13 21 17 12 11 16 9 6 8 9 23 16 15 13 16 19 20 23 28 28 29 32 39 38
53 52 51 51 52 53 53 53 51 49 46 41 32 30 28 25 24 17 31 29 26 27 26 25 29 28 22 26 27 24 32 25 30 29 26 26 24 29 26 27 28 26 24 25 19 30 24 19 29 33 34 35 35 34 32 38 37 33 29 38 22 19 16 20 15 9 7 8 14 12 11 12 12 9 12 14 18 18 16 17 19 23 26 27 28 31 41 41
53 51 47 51 53 53 53 52 49 46 41 35 31 31 31 26 26 27 29 27 30 29 25 29 27 29 27 25 26 26 28 21 31 27 23 27 20 30 24 26 31 25 24 24 19 27 27 18 26 29 35 35 34 30 24 28 34 35 34 31 33 26 22 20 18 17 18 12 4 12 9 9 18 15 15 16 14 18 17 20 20 21 23 25 28 32 40 40
49 46 45 53 54 54 54 50 47 44 37 29 29 29 30 28 34 42 31 27 32 26 26 29 29 26 29 28 27 26 29 25 28 26 23 29 24 34 26 28 29 30 24 23 25 33 22 22 20 28 33 33 26 28 25 28 26 24 24 24 28 24 27 25 24 18 16 10 10 10 10 14 18 14 14 14 12 14 16 23 25 26 24 28 30 38 42 41
49 45 46 53 53 54 53 49 43 39 35 31 29 31 33 33 39 39 45 47 36 41 25 27 29 25 29 30 27 29 28 26 29 25 23 28 23 25 31 29 33 32 32 29 28 28 21 20 22 26 27 27 27 31 28 30 27 24 24 23 26 26 22 17 17 22 21 17 15 9 12 17 18 15 16 15 15 22 24 25 29 30 30 33 43 42 42 41
45 37 42 53 53 52 48 41 40 40 34 30 28 31 34 42 41 38 41 41 43 33 39 34 31 31 30 31 30 31 29 27 30 28 27 24 29 26 34 30 34 33 27 25 23 30 25 25 24 27 28 27 36 36 36 36 36 36 26 23 27 25 22 20 15 20 21 22 20 19 16 16 22 24 18 20 26 29 32 33 28 28 36 38 40 39 40 41
44 39 51 52 53 50 45 38 39 37 33 33 41 40 42 41 41 43 39 40 40 40 34 32 31 31 33 33 33 31 29 28 30 28 29 27 29 27 37 30 34 30 28 27 34 31 32 24 20 22 33 33 32 35 36 35 34 32 32 33 29 24 25 23 20 23 25 21 19 19 17 16 25 30 30 30 34 33 32 29 31 33 34 38 38 39 40 38
44 43 46 52 53 50 42 32 33 34 32 40 37 39 42 41 42 39 37 39 38 36 32 33 36 30 36 34 32 30 29 24 32 31 30 32 30 35 31 32 30 29 28 28 24 31 21 23 25 21 20 25 28 28 28 32 32 29 27 32 34 34 29 26 22 23 19 24 22 21 16 18 35 34 28 28 27 24 27 30 29 29 32 36 35 39 39 39
45 46 46 48 51 48 38 38 34 33 32 33 35 35 37 38 40 42 42 38 42 39 35 30 33 34 34 36 34 34 32 26 29 34 33 34 32 40 33 33 28 28 27 35 33 30 26 26 24 20 17 16 18 22 23 25 27 28 30 31 32 32 31 26 24 23 20 21 23 21 18 18 19 28 24 26 27 27 26 26 30 32 32 33 37 38 38 38
41 34 42 43 47 46 44 43 40 37 33 33 32 34 36 35 40 41 42 41 43 43 41 42 41 35 35 32 33 32 32 32 29 31 31 31 36 34 36 36 32 32 36 36 34 28 24 28 24 22 21 19 19 22 28 30 27 26 27 29 30 32 31 30 24 24 21 21 21 22 21 19 19 18 23 24 26 27 25 27 27 28 31 34 35 37 40 39
43 37 38 36 43 43 41 41 39 39 34 37 31 33 32 35 37 39 41 38 41 40 41 42 40 30 35 32 31 31 32 31 30 35 31 30 36 37 38 40 35 37 36 34 33 29 27 24 27 25 24 23 23 24 33 29 26 26 26 27 29 30 30 30 27 24 26 22 21 23 24 24 21 20 21 22 26 28 29 27 28 30 34 34 37 39 39 39
35 39 43 45 38 34 37 36 39 37 38 38 34 35 32 33 35 33 40 40 41 40 37 38 39 38 34 32 31 27 30 30 30 27 35 32 34 35 31 36 35 37 34 33 35 29 28 23 28 27 26 25 25 23 33 30 28 27 27 27 28 29 30 29 29 27 26 24 20 22 25 24 22 21 23 23 23 24 26 28 27 29 31 35 38 39 38 38
43 41 41 44 38 41 40 39 39 37 37 37 36 37 33 33 33 35 37 38 38 37 39 32 35 38 39 36 30 27 29 27 28 29 28 32 31 30 30 33 34 38 34 35 33 33 25 25 26 28 26 27 27 27 28 32 29 28 28 27 28 29 29 30 29 29 28 26 27 25 24 25 24 23 24 25 26 25 24 26 28 29 29 30 33 34 33 32
38 38 36 42 41 40 41 41 39 38 35 37 33 34 35 34 33 34 36 37 33 35 40 37 36 37 39 40 37 27 29 30 30 28 38 34 31 30 31 31 30 34 34 32 32 32 25 25 28 24 23 25 28 29 28 28 28 27 29 30 29 29 29 30 29 29 29 28 28 27 27 26 25 25 26 26 25 26 26 27 26 27 29 31 31 31 30 30
43 41 43 39 36 38 40 41 38 37 35 36 34 36 36 36 35 35 34 36 35 34 38 35 37 37 38 38 39 39 41 39 40 42 40 35 32 34 30 31 33 32 32 30 30 30 29 28 29 25 23 23 25 26 27 26 27 27 27 29 31 29 28 29 29 30 28 27 28 28 27 26 25 27 27 27 27 28 28 30 29 30 30 30 30 30 30 30
41 44 43 41 35 39 37 39 40 37 33 36 36 36 36 36 37 38 36 39 38 37 37 37 37 37 36 37 37 38 42 42 42 41 41 41 41 41 42 41 37 32 32 31 32 31 30 27 25 26 23 22 26 25 25 25 25 26 26 26 28 30 30 30 31 32 30 29 27 27 26 27 27 28 28 29 30 30 30 30 31 32 32 31 30 30 31 31